Tracking 32579 objects as of 16-Dec-2025
HD Live streaming from Space Station
objects crossing your sky now

ONEWEB-0554

Track ONEWEB-0554 now!
10-day predictions
ONEWEB-0554 is classified as:


NORAD ID: 56056
Int'l Code: 2023-043L
Perigee: 1,203.5 km
Apogee: 1,206.3 km
Inclination: 87.9 °
Period: 109.4 minutes
Semi major axis: 7575 km
RCS: Unknown
Launch date: March 26, 2023
Source: United Kingdom (UK)
Launch site: SRIHARIKOTA (SRI)
Your satellite tracking list
Your tracking list is empty




NASA's NSSDC Master Catalog

Two Line Element Set (TLE):
1 56056U 23043L   25349.78858756 -.00000313  00000-0 -85344-3 0  9997
2 56056  87.9032 265.3060 0001860  81.8464 278.2878 13.16593672134824
Source of the keplerian elements: AFSPC